Wind_Speed
29 29 29 30 29 30 32 33 32 33 29 27 28 30 29 30 28 32 34 37 37 30 37 38 56 51 52 51 59 68 62 55 42 46 54 50 57 54 54 55 57 57 54
29 28 28 29 28 29 28 28 27 31 29 27 25 26 27 30 31 33 33 34 39 29 38 38 47 51 52 46 47 51 57 50 43 47 48 54 49 55 56 53 51 50 48
29 29 28 28 27 27 26 25 22 22 26 25 26 26 27 30 33 34 27 33 36 33 35 40 41 48 44 47 48 51 52 47 47 45 42 47 48 56 56 53 49 44 37
28 28 27 27 26 25 23 23 21 14 12 18 17 20 23 23 27 29 29 29 35 33 37 38 40 43 46 44 52 46 41 43 36 30 29 32 41 44 49 52 46 38 35
27 27 27 26 23 21 18 18 14 12 8 6 11 17 17 21 22 22 26 29 31 30 31 35 34 36 39 41 42 38 30 31 34 35 33 34 37 41 46 50 50 43 33
28 27 25 23 21 20 18 18 16 13 12 10 5 3 6 12 16 18 21 24 25 31 32 33 31 30 29 24 17 16 17 23 30 34 33 34 34 38 42 45 45 38 30
28 27 26 24 22 20 18 17 17 16 14 16 13 9 3 4 13 19 21 26 31 29 32 30 31 25 21 22 19 17 18 20 25 26 27 27 29 34 35 36 36 35 33
27 27 26 25 23 20 20 21 22 20 22 22 22 20 17 12 2 9 18 26 31 30 28 27 28 29 22 18 20 17 17 17 19 20 19 15 19 22 24 26 31 31 26
27 26 26 27 27 28 27 26 27 28 27 25 24 25 24 22 12 12 21 28 28 27 24 24 25 26 22 20 23 26 23 20 18 15 13 12 13 17 18 24 29 29 24
25 25 24 26 28 30 30 31 32 35 33 32 30 27 26 26 22 24 25 32 35 34 32 29 26 30 24 19 19 25 29 27 26 27 26 22 22 21 22 18 18 22 19
19 21 23 26 29 30 31 32 34 36 38 38 37 34 33 29 30 29 30 33 34 34 34 31 29 26 22 20 18 18 19 22 20 18 19 19 21 20 21 21 17 15 15
15 16 19 21 24 25 28 30 31 32 34 36 37 37 36 35 31 28 28 28 28 31 32 30 28 24 21 20 18 16 18 18 19 19 19 20 19 18 16 14 14 13 13
10 12 14 16 18 20 23 25 27 28 29 30 31 32 31 30 28 25 24 22 22 23 24 23 21 19 19 20 18 17 17 16 16 15 14 15 14 12 12 12 12 12 12
6 8 10 12 14 16 18 20 21 23 23 24 25 25 24 24 23 21 19 17 16 17 18 18 17 16 16 13 14 15 16 15 12 12 11 10 9 7 9 11 12 12 13
2 4 5 7 9 11 12 14 16 18 18 18 20 18 17 18 18 17 16 15 14 14 12 12 13 12 13 13 12 11 9 7 6 6 7 8 9 11 11 12 13 13 14
3 1 2 3 4 5 7 8 10 11 12 12 13 13 13 14 13 12 12 11 11 10 8 8 9 9 8 8 7 7 7 8 8 8 8 9 9 10 13 14 16 16 17
8 5 3 3 3 3 3 3 3 3 4 5 6 6 6 6 6 6 5 5 4 4 5 5 5 5 5 5 5 6 7 8 10 10 11 12 13 15 17 18 19 20 20
11 9 7 6 5 4 4 4 4 4 3 2 1 1 1 1 1 1 2 2 3 4 5 6 6 7 8 8 8 8 10 12 13 14 15 15 16 17 19 21 22 22 21
15 12 11 9 9 8 8 7 6 6 7 7 7 7 6 6 6 6 5 3 3 4 5 6 7 8 9 10 11 12 13 15 16 17 18 19 19 21 22 23 24 24 23
20 17 15 13 12 11 10 9 9 8 8 9 9 11 11 10 9 8 8 8 7 7 9 10 11 12 13 13 14 15 17 17 18 19 19 20 20 22 23 23 24 25 25
22 20 19 19 18 16 14 13 13 11 10 11 13 15 16 14 13 13 13 14 15 14 15 16 16 17 17 18 19 20 22 22 22 23 23 24 24 26 25 26 26 27 27
26 25 24 23 20 20 18 17 16 15 14 14 13 12 12 14 14 15 15 15 16 18 20 21 21 21 21 22 23 24 24 24 24 24 24 24 25 26 26 25 25 25 24
27 26 26 25 23 22 21 20 20 19 16 16 16 15 15 16 18 18 18 18 18 18 18 19 20 20 21 23 24 25 26 26 25 26 26 25 25 24 23 23 22 21 21
27 26 26 25 25 24 23 23 22 20 19 20 19 19 18 19 21 22 22 19 18 18 19 20 22 23 23 23 23 24 24 24 24 24 24 23 22 20 19 19 17 16 15
26 26 25 25 25 25 24 23 23 21 22 21 20 20 19 21 22 23 22 22 22 22 22 22 22 22 22 22 23 23 23 24 23 21 20 19 18 16 15 14 13 12 13
24 24 25 25 25 24 24 24 23 23 23 20 19 20 21 22 22 24 24 24 23 22 21 21 20 20 21 21 21 20 19 18 17 15 14 13 12 12 11 11 11 10 11
Wind_Direction
335 332 326 320 315 309 303 295 283 281 279 270 256 254 253 244 241 237 239 232 223 239 221 234 231 237 226 226 223 228 226 222 213 216 221 216 211 208 208 210 209 209 210
339 334 330 327 324 319 315 306 291 278 270 265 255 253 247 242 237 236 236 227 218 233 225 229 229 227 224 226 222 223 225 217 216 219 217 220 213 209 208 203 204 211 215
342 340 339 337 334 331 327 320 308 287 268 264 252 251 249 245 240 236 235 223 214 225 231 229 227 223 225 232 237 232 230 225 223 221 209 207 203 207 205 204 209 212 215
349 345 344 345 344 341 337 335 328 317 280 254 250 250 244 240 238 241 228 221 212 220 229 233 229 227 230 241 235 230 240 230 219 223 217 211 209 205 209 207 200 209 215
355 354 353 355 353 354 355 352 355 354 344 287 249 241 243 243 235 229 217 217 212 221 225 228 228 234 235 234 232 226 234 231 225 223 222 203 198 202 208 209 213 209 208
3 3 1 2 3 8 10 14 16 24 24 15 350 295 215 212 211 219 219 213 222 211 218 210 210 207 203 210 212 222 235 232 224 216 210 205 204 202 205 208 208 201 200
12 14 15 12 16 22 23 34 42 49 54 62 62 61 77 173 192 188 212 217 204 204 192 190 182 184 184 181 183 193 207 217 230 231 226 220 211 209 206 203 200 204 203
18 22 29 28 31 35 40 46 53 59 66 75 78 85 91 95 32 217 212 196 181 173 165 165 164 158 153 167 172 170 186 195 212 215 217 230 216 204 201 199 193 194 194
26 26 33 36 41 45 50 57 64 68 71 71 77 82 89 103 111 147 163 145 134 128 132 137 139 131 130 151 156 156 152 162 163 168 170 176 179 176 178 181 186 188 189
37 31 40 44 46 50 52 59 65 70 71 75 76 76 85 96 118 130 134 125 125 124 122 121 119 113 125 142 159 157 149 143 143 141 141 145 150 155 163 179 190 193 196
43 44 46 54 54 54 58 61 65 68 72 70 71 77 84 89 97 105 112 117 117 117 117 112 106 112 126 131 138 140 139 138 141 144 143 145 153 159 167 172 178 193 209
50 51 55 55 60 62 63 62 62 66 69 73 76 75 76 81 83 90 98 104 110 111 111 115 117 123 127 131 129 127 125 129 131 138 142 146 152 158 165 176 189 202 219
51 55 55 56 60 64 67 71 69 68 71 73 74 75 75 75 79 80 83 92 99 103 106 112 121 131 133 122 120 124 123 127 128 131 138 147 154 168 180 194 207 217 228
51 52 59 60 59 61 66 66 70 72 70 71 71 72 76 81 80 80 84 85 88 95 108 120 120 114 103 114 126 129 134 135 138 149 156 160 167 182 204 216 229 239 246
49 35 52 59 63 66 64 67 65 68 69 72 79 81 85 91 89 91 94 95 96 101 102 107 111 122 141 143 145 143 136 144 147 166 183 193 203 212 224 235 244 252 262
200 281 344 21 41 46 57 61 65 70 72 72 71 71 68 63 65 69 75 81 85 93 106 121 129 137 145 148 149 151 171 189 200 207 214 221 231 238 244 251 259 262 267
235 231 249 306 326 343 9 43 68 70 77 81 81 81 83 92 99 98 90 84 89 117 149 148 156 157 171 182 187 192 205 219 230 237 243 246 248 252 258 261 262 263 266
229 229 227 231 247 268 289 309 320 323 324 326 300 250 227 210 176 185 196 172 167 185 188 188 200 209 216 222 225 225 232 240 246 250 251 253 256 259 262 265 267 268 267
238 238 239 237 241 248 256 264 275 287 296 301 304 300 298 296 299 296 285 259 245 216 226 230 234 240 244 248 253 253 254 257 257 258 260 262 265 266 267 267 268 268 268
238 237 241 244 247 251 255 261 270 278 287 292 292 290 289 289 288 287 284 280 256 247 246 240 242 242 244 248 251 255 256 258 261 264 267 268 269 269 269 270 269 269 270
239 238 242 244 248 252 252 253 255 263 275 282 277 278 273 270 266 267 266 265 265 261 257 256 254 257 258 259 260 262 265 267 267 270 271 273 274 275 277 275 273 271 269
240 239 240 244 247 248 251 255 258 261 266 287 294 297 299 297 295 290 285 280 275 272 270 270 271 271 270 270 270 270 271 273 274 275 275 276 275 274 273 273 273 272 270
243 244 246 248 251 253 254 257 261 264 269 274 281 284 287 289 291 290 287 284 282 282 281 279 280 279 277 275 274 275 276 277 278 277 277 277 275 274 272 272 271 269 267
243 246 248 250 251 254 255 257 261 264 269 275 279 284 289 297 299 293 290 286 281 283 284 283 282 282 282 282 281 280 280 279 277 276 275 273 272 269 267 266 264 262 257
244 245 248 252 253 256 259 261 263 265 267 270 273 276 281 290 297 305 303 296 292 288 287 287 287 286 285 283 282 281 280 279 279 277 274 271 267 262 259 254 249 245 243
241 245 250 252 256 259 261 263 263 263 268 272 269 266 269 277 283 291 295 294 292 291 290 289 288 286 284 283 282 281 280 278 275 273 267 262 256 250 245 241 236 233 230
Height
1360 1354 1347 1340 1334 1327 1321 1314 1309 1307 1305 1304 1304 1306 1308 1311 1315 1319 1323 1327 1333 1337 1341 1345 1359 1363 1368 1372 1375 1374 1379 1389 1393 1398 1408 1413 1419 1427 1432 1438 1443 1446 1451
1357 1349 1342 1335 1328 1321 1313 1306 1300 1297 1296 1296 1297 1299 1301 1303 1306 1310 1314 1319 1325 1330 1337 1342 1347 1351 1359 1366 1370 1373 1375 1381 1388 1388 1397 1405 1410 1418 1424 1430 1436 1441 1444
1353 1346 1338 1331 1323 1316 1308 1300 1293 1288 1286 1287 1289 1291 1293 1295 1299 1303 1306 1312 1319 1323 1329 1335 1339 1346 1351 1359 1363 1368 1373 1377 1383 1382 1386 1394 1401 1408 1416 1422 1430 1437 1440
1351 1344 1336 1328 1321 1313 1306 1298 1290 1283 1280 1280 1282 1284 1286 1288 1292 1296 1300 1305 1313 1318 1324 1328 1335 1339 1345 1353 1356 1363 1370 1374 1379 1384 1388 1393 1400 1405 1413 1418 1421 1431 1436
1350 1343 1335 1328 1320 1313 1305 1298 1290 1283 1279 1277 1277 1279 1281 1284 1287 1291 1295 1300 1306 1312 1318 1322 1329 1336 1342 1349 1354 1358 1363 1370 1375 1380 1383 1387 1391 1397 1405 1412 1418 1425 1432
1351 1343 1336 1329 1321 1314 1306 1300 1293 1286 1281 1278 1277 1276 1278 1280 1285 1288 1292 1297 1302 1307 1311 1318 1324 1334 1341 1346 1350 1356 1362 1366 1371 1375 1378 1381 1386 1391 1396 1405 1413 1422 1430
1353 1345 1338 1331 1324 1317 1311 1302 1296 1291 1287 1283 1281 1280 1280 1280 1283 1287 1291 1295 1300 1305 1309 1313 1323 1329 1333 1341 1347 1353 1360 1364 1373 1376 1378 1380 1383 1387 1394 1402 1412 1420 1424
1357 1349 1342 1336 1329 1322 1315 1309 1303 1298 1294 1291 1288 1286 1285 1285 1286 1289 1292 1297 1300 1304 1310 1315 1321 1329 1330 1338 1347 1349 1360 1366 1373 1376 1377 1381 1384 1388 1396 1404 1411 1419 1425
1360 1354 1347 1342 1336 1329 1322 1316 1311 1306 1301 1299 1297 1294 1293 1292 1293 1295 1299 1303 1304 1310 1316 1324 1328 1324 1333 1342 1350 1357 1359 1366 1369 1373 1376 1383 1388 1392 1398 1406 1412 1418 1424
1364 1360 1354 1348 1342 1336 1332 1326 1321 1316 1312 1309 1305 1304 1302 1300 1303 1304 1307 1307 1311 1319 1325 1331 1334 1330 1342 1351 1357 1358 1357 1364 1369 1373 1377 1384 1389 1396 1402 1411 1417 1420 1424
1369 1365 1361 1354 1350 1346 1342 1337 1332 1327 1323 1321 1319 1317 1315 1317 1318 1317 1317 1324 1325 1327 1332 1335 1335 1342 1353 1358 1366 1366 1365 1368 1373 1378 1383 1388 1396 1403 1406 1411 1416 1420 1424
1373 1370 1366 1362 1357 1354 1350 1347 1343 1339 1336 1334 1332 1333 1332 1332 1334 1336 1338 1339 1339 1337 1337 1344 1352 1360 1366 1368 1370 1371 1371 1375 1378 1383 1388 1393 1398 1404 1409 1413 1416 1418 1422
1376 1373 1370 1368 1365 1361 1358 1355 1352 1350 1347 1344 1344 1343 1343 1344 1345 1347 1349 1351 1350 1351 1351 1355 1361 1368 1372 1368 1373 1378 1377 1381 1383 1388 1394 1399 1400 1405 1408 1411 1415 1417 1419
1377 1375 1373 1371 1369 1367 1365 1362 1360 1358 1356 1354 1353 1352 1352 1353 1353 1355 1357 1359 1360 1360 1361 1367 1369 1369 1366 1374 1380 1381 1383 1385 1387 1392 1396 1398 1400 1402 1407 1410 1414 1414 1414
1377 1376 1375 1373 1372 1370 1369 1367 1366 1364 1363 1361 1360 1360 1361 1360 1361 1362 1363 1365 1367 1367 1367 1368 1370 1375 1380 1381 1382 1383 1382 1386 1388 1393 1396 1397 1399 1401 1405 1407 1409 1409 1408
1377 1376 1375 1374 1373 1372 1371 1371 1370 1369 1369 1368 1367 1366 1364 1364 1364 1365 1366 1367 1367 1368 1371 1374 1375 1377 1379 1381 1381 1381 1385 1388 1391 1393 1394 1395 1397 1399 1401 1403 1404 1405 1405
1374 1375 1375 1374 1374 1373 1372 1372 1372 1371 1371 1371 1370 1370 1370 1371 1371 1371 1371 1371 1372 1374 1376 1376 1377 1376 1378 1380 1381 1383 1384 1386 1389 1390 1391 1393 1395 1396 1398 1399 1400 1400 1401
1370 1370 1370 1370 1371 1371 1371 1372 1372 1371 1371 1371 1372 1372 1372 1372 1373 1373 1374 1375 1377 1377 1377 1376 1377 1378 1379 1380 1381 1382 1384 1385 1387 1388 1389 1391 1392 1393 1392 1393 1394 1394 1395
1369 1370 1370 1369 1369 1368 1368 1368 1368 1369 1369 1369 1370 1370 1370 1370 1371 1372 1372 1373 1374 1374 1375 1375 1376 1377 1377 1378 1379 1380 1381 1382 1384 1385 1386 1386 1386 1386 1386 1387 1387 1387 1387
1366 1368 1368 1369 1368 1368 1369 1369 1369 1369 1368 1368 1367 1367 1368 1368 1369 1369 1370 1370 1371 1372 1372 1373 1374 1374 1375 1376 1376 1376 1377 1377 1378 1378 1379 1378 1378 1379 1379 1380 1380 1380 1380
1360 1362 1363 1364 1365 1366 1366 1366 1366 1366 1366 1366 1366 1365 1364 1364 1365 1365 1366 1366 1367 1367 1368 1368 1369 1368 1369 1369 1370 1370 1370 1370 1370 1371 1371 1370 1370 1371 1371 1371 1371 1371 1371
1354 1355 1357 1358 1360 1360 1361 1362 1363 1363 1363 1363 1363 1362 1361 1361 1361 1360 1360 1359 1359 1359 1358 1359 1359 1360 1361 1361 1362 1361 1361 1361 1361 1361 1361 1361 1362 1362 1362 1362 1362 1362 1363
1348 1350 1352 1354 1356 1357 1358 1358 1359 1359 1359 1359 1359 1358 1357 1357 1356 1355 1354 1354 1353 1353 1352 1352 1352 1353 1353 1353 1353 1353 1353 1353 1353 1352 1352 1353 1353 1353 1353 1353 1353 1354 1355
1341 1344 1346 1348 1349 1350 1351 1352 1353 1354 1355 1356 1356 1355 1354 1353 1352 1350 1349 1348 1347 1347 1346 1346 1346 1346 1345 1345 1345 1344 1345 1345 1345 1345 1344 1344 1344 1344 1345 1345 1346 1347 1349
1334 1336 1339 1341 1342 1344 1345 1346 1347 1349 1349 1349 1350 1350 1349 1348 1347 1346 1344 1344 1342 1340 1339 1338 1338 1337 1337 1337 1337 1337 1336 1336 1335 1336 1336 1337 1337 1337 1338 1339 1340 1342 1343
1326 1329 1332 1334 1337 1338 1339 1340 1340 1340 1342 1342 1342 1341 1341 1341 1340 1339 1337 1336 1335 1334 1332 1331 1331 1330 1329 1329 1328 1328 1328 1328 1328 1329 1329 1330 1332 1333 1333 1334 1336 1338 1339